Home > Weather > Grand Rapids > Past weeks

Flag for USA Past Weather in Grand Rapids, Michigan, USA — Yesterday and Last 2 Weeks

Now
66 °F

Fog.


Feels Like: 66 °F
Forecast: 67 / 96 °F
Wind: No wind

Location: Kent County International Airport

Current Time: Jul 23, 2016 at 7:14:58 AM

Latest Report: Jul 23, 2016 at 5:53 AM


Visibility: 6 mi

Pressure: 29.98 "Hg

Humidity: 90%

Dew Point: 63 °F

Location of Grand RapidsLocation

Past Weather in Grand Rapids — Graph

°F

Grand Rapids Temperature Yesterday

Maximum temperature yesterday: 87 °F (at 3:53 PM)
Minimum temperature yesterday: 73 °F (at 6:53 AM)
Average temperature yesterday: 80 °F

High & Low Weather Summary for the Past Weeks

 TemperatureHumidityPressure
High91 °F (Jul 8, 2:53 PM)93% (Jul 17, 5:53 AM)30.25 "Hg (Jul 17, 5:53 AM)
Low57 °F (Jul 17, 5:53 AM)13% (Jul 18, 4:53 PM)29.72 "Hg (Jul 8, 2:53 PM)
Average76 °F66%29.99 "Hg
* Reported Jul 8 5:53 AM — Jul 23 5:53 AM, Grand Rapids, Weather by CustomWeather, © 2016

Note: Actual official high and low records may vary slightly from our data, if they occured in-between our weather recording intervals... More about our weather records

Advertising

Grand Rapids Weather History for the Previous 24 Hours

Scroll right to see more
 ConditionsComfort  
Time TempWeatherWind HumidityBarometerVisibility
5:53 AM
Sat, Jul 23
66 °FFog.No wind90%29.98 "Hg6 mi
4:53 AM68 °FFog.3 mph90%29.98 "Hg5 mi
3:53 AM68 °FFog.6 mph90%29.97 "Hg5 mi
2:53 AM68 °FClear.3 mph90%29.98 "Hg7 mi
1:53 AM70 °FClear.5 mph87%29.98 "Hg8 mi
12:53 AM71 °FClear.6 mph87%29.98 "Hg10 mi
11:53 PM
Fri, Jul 22
73 °FClear.6 mph81%29.97 "Hg10 mi
10:53 PM75 °FClear.6 mph79%29.97 "Hg10 mi
9:53 PM77 °FSunny.7 mph74%29.96 "Hg10 mi
8:53 PM81 °FPassing clouds.8 mph65%29.96 "Hg10 mi
7:53 PM83 °FPassing clouds.9 mph61%29.95 "Hg10 mi
6:53 PM85 °FPassing clouds.10 mph59%29.95 "Hg10 mi
5:53 PM86 °FPassing clouds.12 mph57%29.96 "Hg10 mi
4:53 PM86 °FPassing clouds.10 mph57%29.97 "Hg10 mi
3:53 PM87 °FPassing clouds.12 mph53%29.98 "Hg10 mi
2:53 PM86 °FScattered clouds.13 mph55%30.00 "Hg10 mi
1:53 PM84 °FPartly sunny.14 mph57%30.00 "Hg10 mi
12:53 PM84 °FPartly sunny.16 mph57%30.00 "Hg10 mi
11:53 AM83 °FPartly sunny.15 mph57%29.99 "Hg10 mi
10:53 AM82 °FPartly sunny.15 mph60%29.98 "Hg10 mi
9:53 AM81 °FPartly sunny.17 mph60%29.98 "Hg10 mi
8:53 AM77 °FPartly sunny.12 mph71%29.98 "Hg10 mi
7:53 AM75 °FPartly sunny.8 mph74%29.97 "Hg10 mi
Weather by CustomWeather, © 2016

See weather overviewHow to use our weather pages